TOM84R GCRR-EGNT

Flight info

Callsign TOM84R
Flight time N/A
Altitude 38000
Route VASTO DCT NIDEB DCT TIGGI DCT ESUTI DCT FERFE DCT TERVA DCT DIRMA DCT DEMOS DCT SOSOV/N0469F390 DCT AMPOP DCT UNFIT DCT INFEC DCT KISWO DCT AVTIC DCT ANJAK/N0463F400 N38 NOKIN UP17 POL
Aircraft A339/H-SADE1E2E3GHIJ3J5M1P2RWXY/LB2D1

Departure

Time 2026-05-04 18:34
Airport César Manrique-Lanzarote Airport (GCRR)

Arrival

Time N/A
Airport Newcastle International Airport (EGNT)
Time Latitude Longitude Altitude Speed Heading
2026-05-04 17:37 28.94960 -13.60766 93 ft 0 kts 297°
2026-05-04 18:24 28.94957 -13.60759 93 ft 2 kts 297°
2026-05-04 18:24 28.94950 -13.60744 92 ft 1 kts 297°
2026-05-04 18:25 28.94945 -13.60734 92 ft 2 kts 292°
2026-05-04 18:25 28.94941 -13.60717 91 ft 2 kts 271°
2026-05-04 18:25 28.94943 -13.60700 90 ft 2 kts 256°
2026-05-04 18:25 28.94948 -13.60684 90 ft 2 kts 239°
2026-05-04 18:26 28.94956 -13.60670 90 ft 2 kts 224°
2026-05-04 18:26 28.94967 -13.60660 90 ft 1 kts 208°
2026-05-04 18:26 28.94973 -13.60657 90 ft 0 kts 206°
2026-05-04 18:28 28.94968 -13.60660 90 ft 3 kts 206°
2026-05-04 18:28 28.94932 -13.60674 89 ft 6 kts 186°
2026-05-04 18:28 28.94907 -13.60656 86 ft 2 kts 116°
2026-05-04 18:28 28.94880 -13.60598 82 ft 12 kts 120°
2026-05-04 18:29 28.94827 -13.60575 77 ft 10 kts 199°
2026-05-04 18:29 28.94738 -13.60633 75 ft 12 kts 225°
2026-05-04 18:29 28.94658 -13.60673 73 ft 14 kts 198°
2026-05-04 18:29 28.94556 -13.60726 69 ft 17 kts 208°
2026-05-04 18:30 28.94317 -13.60862 64 ft 20 kts 207°
2026-05-04 18:30 28.94189 -13.60937 61 ft 22 kts 206°
2026-05-04 18:30 28.94045 -13.61017 59 ft 23 kts 206°
2026-05-04 18:31 28.93897 -13.61103 58 ft 24 kts 207°
2026-05-04 18:31 28.93760 -13.61185 59 ft 10 kts 207°
2026-05-04 18:31 28.93700 -13.61218 59 ft 4 kts 200°
2026-05-04 18:31 28.93699 -13.61219 59 ft 0 kts 195°
2026-05-04 18:32 28.93695 -13.61219 59 ft 1 kts 191°
2026-05-04 18:32 28.93664 -13.61212 58 ft 7 kts 142°
2026-05-04 18:32 28.93621 -13.61140 54 ft 13 kts 117°
2026-05-04 18:33 28.93616 -13.61067 50 ft 6 kts 40°
2026-05-04 18:33 28.93629 -13.61058 50 ft 3 kts 30°
2026-05-04 18:33 28.93663 -13.61037 49 ft 11 kts 28°
2026-05-04 18:33 28.93971 -13.60851 47 ft 88 kts 27°
2026-05-04 18:34 28.94729 -13.60417 66 ft 151 kts 27°
2026-05-04 18:34 28.95734 -13.59800 500 ft 171 kts 31°
2026-05-04 18:34 28.96705 -13.59097 1321 ft 166 kts 39°
2026-05-04 18:34 28.97541 -13.58264 2105 ft 159 kts 45°
2026-05-04 18:35 28.98297 -13.57355 2690 ft 157 kts 40°
2026-05-04 18:35 28.99177 -13.56625 3158 ft 161 kts 36°
2026-05-04 18:35 29.00100 -13.55839 3621 ft 167 kts 37°
2026-05-04 18:35 29.00961 -13.54899 3932 ft 183 kts 55°
2026-05-04 18:36 29.01423 -13.53455 4266 ft 201 kts 74°
2026-05-04 18:36 29.01856 -13.51901 4633 ft 212 kts 55°
2026-05-04 18:36 29.02834 -13.50621 5015 ft 223 kts 38°
2026-05-04 18:36 29.04073 -13.49422 5370 ft 240 kts 37°
2026-05-04 18:37 29.05381 -13.48094 5730 ft 259 kts 40°
2026-05-04 18:37 29.06721 -13.46620 6141 ft 275 kts 41°
2026-05-04 18:37 29.08091 -13.45033 6765 ft 282 kts 42°
2026-05-04 18:37 29.09503 -13.43433 7423 ft 285 kts 34°
2026-05-04 18:38 29.11256 -13.42529 8037 ft 279 kts
2026-05-04 18:38 29.13157 -13.42607 8720 ft 274 kts 347°
2026-05-04 18:38 29.15085 -13.42921 9333 ft 280 kts 347°